Location: Lecco
(45.8566°N, 9.3977°E)
Time: 13:24:12
(UTC+02:00)

Explorer 11/Cluster Stage 4 - Pass Details

Date: 21 August 2020
Orbit: 467 x 1258 km, 28.8° (Epoch: 24 September)

Event Time Altitude Azimuth Distance (km) Brightness Sun altitude
Rises 19:01:14 0° 212° (SSW) 3,163 10.1 12.6°
Reaches altitude 10° 19:05:22 10° 180° (S) 2,449 9.1 11.9°
Maximum altitude 19:07:19 12° 160° (SSE) 2,425 8.9 11.6°
Drops below altitude 10° 19:09:23 10° 141° (SE) 2,643 8.9 11.2°
Sets 19:14:23 0° 112° (ESE) 3,812 9.5 10.3°
